www.pogodaiklimat.ru

Погода и климат >> Архив погоды >> Россия >> Калмыкия >> Яшкуль


АРХИВ ПОГОДЫ в Яшкуле

Время (UTC), дата Ветер
(напр.,м/с)
 
Видим.   Явления Облачность Т
(С)
Тd
(С)
f
(%)
Тe
(С)
Тes
(С)
Комфортность P
(гПа)
Po
(гПа)
Тmin
(С)
Tmax
(С)
R
(мм)
S
(см)
03 16.03 С 1 20 км 9/0
[Ac trans]
+1.9 -1.7 77 0 0 по сезону 1014.2 1015.0 +1.2
06 16.03 С 3 20 км 10/0
[Ac As]
+3.2 -0.1 79 -1 +1 по сезону 1013.5 1014.4
09 16.03 В 1 20 км 10/0
[Ac As]
+5.0 +0.2 71 +4 +8 по сезону 1013.4 1014.3
12 16.03 СВ 2 20 км 6/0
[Ac trans]
+8.8 +0.7 57 +7 +11 тепло 1012.1 1013.0
15 16.03 З 1 20 км 8/0
[Ac trans]
+8.4 -1.5 50 +8 +8 тепло 1012.3 1013.2 +9.5
18 16.03 С 1 20 км ясно +4.6 -0.5 69 +4 +4 тепло 1012.8 1013.6
21 16.03 СЗ 2 20 км 9/0
[Ac trans]
+3.0 +1.4 89 -0 -0 по сезону 1012.8 1013.7
00 17.03 З 3 20 км ясно +1.5 -0.1 89 -3 -3 по сезону 1012.9 1013.8
03 17.03 СЗ 1 20 км 8/0
[Ac trans]
-0.1 -0.9 94 -2 -2 по сезону 1014.1 1014.9 -0.1
06 17.03 СЗ 3 20 км 10/0
[Ac As]
+4.4 +3.5 94 +1 +2 по сезону 1015.0 1015.9 -0.4
09 17.03 СЗ 3 20 км 8/6 300 м
[St Ac trans]
+10.5 +2.8 59 +9 +11 тепло 1015.0 1015.9
12 17.03 СЗ 3 20 км 8/6 600 м
[Cu hum Ac trans Ci sp]
+12.6 +1.5 47 +11 +13 тепло 1014.8 1015.7
15 17.03 штиль 0 20 км 5/0
[Ac trans]
+10.9 +1.6 53 +11 +11 тепло 1015.4 1016.2 +12.8
18 17.03 ЮВ 2 20 км ясно +5.4 +1.2 74 +3 +3 по сезону 1015.5 1016.4
21 17.03 ЮВ 2 20 км ясно +2.8 +0.7 86 -0 -0 по сезону 1015.0 1015.9
00 18.03 Ю 1 20 км ясно +2.9 +0.9 87 +1 +1 тепло 1014.9 1015.8
03 18.03 В 2 20 км 4/0
[Ci fib]
+0.2 -0.5 95 -4 -4 по сезону 1015.0 1015.9 -0.1
06 18.03 ЮВ 2 20 км 4/0
[Ci fib]
+8.3 +2.5 67 +7 +12 тепло 1015.5 1016.3
09 18.03 В 4 20 км 8/0
[Ci]
+11.9 +1.0 47 +10 +16 тепло 1014.2 1015.1
12 18.03 В 6 20 км 8/0
[Ac trans Ci fib]
+12.9 +1.5 46 +11 +12 тепло 1012.5 1013.4
15 18.03 В 2 20 км 9/0
[Ac trans]
+9.2 +2.4 62 +8 +8 тепло 1013.4 1014.2 +13.2
18 18.03 В 3 20 км ясно +6.1 +1.9 74 +3 +3 по сезону 1013.9 1014.8
21 18.03 ЮВ 2 20 км 10/0
[Ac As]
+3.4 +1.9 90 0 0 по сезону 1014.2 1015.1
00 19.03 Ю 2 20 км 10/0
[Ac As]
+4.0 +1.3 83 +1 +1 тепло 1013.9 1014.8
03 19.03 ЮВ 1 20 км 10/0
[Ac As]
+4.0 +1.7 85 +3 +3 тепло 1013.8 1014.7 +2.9
06 19.03 Ю 3 20 км 10/0
[Ac As]
+4.9 +2.4 84 +1 +3 по сезону 1014.4 1015.3
09 19.03 ЮВ 3 20 км 10/0
[Ac As]
+6.4 +2.0 73 +3 +6 по сезону 1013.2 1014.1
12 19.03 ЮВ 3 20 км 10/0
[Ac As]
+7.2 +2.0 70 +5 +6 по сезону 1012.3 1013.2
15 19.03 В 2 20 км 10/0
[Ac As]
+6.7 +2.3 73 +5 +5 по сезону 1011.9 1012.8 +7.3
18 19.03 В 3 20 км 8/0
[Ac trans]
+4.6 +2.4 86 +1 +1 по сезону 1011.3 1012.2
21 19.03 В 4 20 км 8/0
[Ac trans]
+4.2 +1.8 84 -0 -0 по сезону 1010.0 1010.9
00 20.03 В 3 н/о н/о +3.6 +3.3 98 -1 -1 по сезону 1008.8 1009.7
03 20.03 В 5 20 км 8/0
[Ac trans]
+4.4 +4.1 98 -1 -1 по сезону 1008.0 1008.8 +2.9
06 20.03 В 5 4000 м дымка 10/0
[Ac As]
+4.6 +4.3 98 -1 0 по сезону 1007.5 1008.4
09 20.03 В 6 20 км 10/0
[Ac As]
+9.3 +3.5 67 +6 +7 тепло 1006.7 1007.5
12 20.03 В 2 20 км 5/0
[Ac trans]
+12.4 +3.8 56 +12 +16 тепло 1005.9 1006.7
15 20.03 ЮЗ 3 20 км 10/0
[Ac As]
+9.4 +4.1 69 +7 +7 тепло 1007.4 1008.2 +12.4
18 20.03 З 3 20 км 10/0
[Ac As]
+8.3 +4.5 77 +6 +6 тепло 1008.3 1009.2
21 20.03 З 4 20 км 10/0
[Ac As]
+8.0 +3.9 75 +5 +5 тепло 1008.3 1009.2
00 21.03 З 7-12
{12}
20 км 10/0
[Ac As]
+6.6 +3.9 83 +2 +2 тепло 1009.0 1009.9
03 21.03 З 8-13
{15}
20 км 10/0
[Ac As]
+5.4 +2.2 80 -0 -0 по сезону 1009.9 1010.8 +5.4
06 21.03 З 8-11
{13}
20 км 10/0
[Ac As]
+6.1 +1.8 74 +1 +1 по сезону 1010.1 1011.0 +5.2
09 21.03 З 7-11
{13}
20 км 10/0
[Ac As]
+5.9 +2.2 77 +1 +2 по сезону 1010.6 1011.4
12 21.03 З 7-10
{13}
20 км 10/0
[Ac As]
+6.4 +2.1 74 +2 +2 прохладно 1010.5 1011.4
15 21.03 З 6
{12}
20 км 10/0
[Ac As]
+7.4 +1.0 64 +3 +3 по сезону 1010.1 1011.0 +7.6
18 21.03 СЗ 3 20 км 10/6 300 м
[St Ac As]
+4.1 +3.0 93 0 0 по сезону 1010.1 1011.0
21 21.03 СЗ 3 10 км слабый снег 10/10 300 м
[Frnb Ns]
+0.1 -0.1 99 -5 -5 прохладно 1010.6 1011.5
00 22.03 СЗ 6 10 км слабый снег 10/10 300 м
[Frnb Ns]
-0.2 -0.3 99 -7 -7 прохладно 1010.5 1011.3
03 22.03 З 6 10 км слабый снег 10/10 300 м
[Frnb Ns]
-0.3 -0.4 99 -7 -7 холодно 1010.9 1011.8 -0.4 8 2
06 22.03 СЗ 6
{10}
10 км слабый снег 10/10 300 м
[Frnb Ns]
-0.3 -0.4 99 -7 -7 холодно 1012.1 1013.0
09 22.03 СЗ 4 20 км {снег} 10/0
[As op]
-0.3 -0.4 99 -6 -5 очень
холодно
1013.1 1014.0
12 22.03 СЗ 4 20 км {снег} 10/0
[Ac As]
-0.1 -0.2 99 -6 -5 очень
холодно
1014.3 1015.2
15 22.03 СЗ 4 20 км {снег} 10/0
[Ac As]
-0.5 -0.7 99 -6 -6 очень
холодно
1016.3 1017.2 0.0 1
18 22.03 СЗ 4 20 км 10/6
[St Ac As]
-0.8 -1.0 99 -7 -7 очень
холодно
1017.8 1018.7
21 22.03 СЗ 3 20 км 10/0
[Ac As]
-0.8 -1.1 98 -6 -6 холодно 1018.6 1019.5

 

Местоположение метеостанции Яшкуль (Калмыкия, Россия): широта 46.18 долгота 45.35 высота над уровнем моря -7 м.

В архиве по умолчанию представлена погода в Яшкуле за последнюю неделю. Архивные данные за месяц целиком и за предыдущие месяцы, начиная с января 2011 года, Вы можете получить, выбрав интересующий диапазон дат из раскрывающегося списка и нажав кнопку "Ввод!".

Внимание! Время в таблицах - всемирное. Для получения местного времени необходимо прибавить поправку, которая в Яшкуле равна 3 ч.

Смотрите также архив погоды в соседних городах и на ближайших метеорологических станциях:

Погода в Утте (Калмыкия, Россия) (56 км)
Погода в Ики-Буруле (Калмыкия, Россия) (70 км)
Погода в Элисте (Калмыкия, Россия) (81 км)
Погода в Комсомольском (Калмыкия, Россия) (106 км)
Погода в Арзгире (Ставропольский край, Россия) (124 км)
Погода в Юсте (Калмыкия, Россия) (129 км)
Погода в Ремонтном (Ростовская область, Россия) (136 км)
Погода в Кетченерах (Калмыкия, Россия) (140 км)
Погода в Лимане (Астраханская область, Россия) (151 км)
Погода в Дивном (Ставропольский край, Россия) (157 км)

Пояснения к столбцам:

Ветер - указаны скорость ветра в м/с - средняя за 10 мин, порывы в срок и между сроками (в фигурных скобках) и направление, откуда дует ветер: С - северный, СВ - северо-восточный, В - восточный, ЮВ - юго-восточный, Ю - южный, ЮЗ - юго-западный, З - западный, СЗ - северо-западный.
Видимость - горизонтальная дальность видимости в метрах или километрах. При видимости от 1 до 10 км при отсутствии осадков обычно наблюдается дымка, при ухудшении видимости до 1 км и менее - туман. В сухую погоду видимость может ухудшаться дымом, пылью или мглою.
Явления - указаны атмосферные явления, наблюдавшиеся в срок или в последний час перед сроком; фигурными скобками обозначены явления, наблюдавшиеся между сроками (за 1-3 часа до срока); квадратными скобками обозначены град или гололедные отложения с указанием их диаметра в мм.
Облачность - указаны через наклонную черту общая и нижняя облачность в баллах и высота нижней границы облаков в метрах; квадратными скобками обозначены формы облаков: Ci - перистые, Cs - перисто-слоистые, Cc - перисто-кучевые, Ac - высококучевые, As - высокослоистые, Sc - слоисто-кучевые, Ns - слоисто-дождевые, Cu - кучевые, Cb - кучево-дождевые. Подробнее классификацию облаков см. в Атласе облаков (PDF).
T - Температура воздуха - температура, измеренная на высоте 2 м над землей.
Td - Температура точки росы - температура, при понижении до которой содержащийся в воздухе водяной пар достигнет насыщения.
f - Относительная влажность воздуха - влажноcть воздуха, измеренная на высоте 2 м над землей.
Te - Эффективная температура - температура, которую ощущает одетый по сезону человек в тени. Характеристика душности погоды. При расчете учитывается влияние влажности воздуха и скорости ветра на теплоощущения человека.
Tes - Эффективная температура на солнце - температура, которую ощущает человек, с поправкой на солнечный нагрев. Характеристика знойности погоды. Зависит от высоты солнца над горизонтом, облачности и скорости ветра. Ночью, в пасмурную погоду, а также при ветре 12 м/с и более поправка равна нулю.
P - Атмосферное давление - приведенное к уровню моря атмосферное давление.
Po - Атмосферное давление - измеренное на уровне метеостанции атмосферное давление.
Tmin - Минимальная температура - минимум температуры воздуха на высоте 2 м над землей.
Tmax - Максимальная температура - максимум температуры воздуха на высоте 2 м над землей.
R - Количество осадков - Количество выпавших осадков, мм. При наведении курсора мыши на число - период времени, за который выпало указанное количество осадков.
S - Снежный покров - Высота снежного покрова, см. При наведении курсора мыши на число - состояние снежного покрова и степень покрытия местности в баллах.